Location: Bluff Heights
(33.7692°N, 118.1592°W)
Time: 01:11:23
(UTC+00:00)

S-56A Canister/Altair - Pass Details

Date: 29 July 2021
Orbit: 632 x 2500 km, 38.9° (Epoch: 18 September)

Event Time Altitude Azimuth Distance (km) Brightness Sun altitude
Rises 05:18:32 0° 293° (WNW) 6,108 13.2 -25.1°
Reaches altitude 10° 05:22:48 10° 291° (WNW) 4,979 12.4 -25.7°
Maximum altitude 05:36:22 65° 214° (SW) 2,033 9.4 -27.5°
Enters shadow 05:39:42 47° 156° (SSE) 2,176 9.3 -27.9°
